Estación Meteorológica Peña el Pijo (Robertgarden) [ 07/12/20 06:10:18 CEST ]

Fecha Hora Presion(HPa) Temp (°C) Humedad % Rocio (°C) Viento ( m/s) Direccion Lluvia 1Hora(mm) Lluvia 24H(mm) LLuvia Total(mm)
2020-Feb-14 01:09:29 1014.400 - - - - N     39.88
2020-Feb-14 02:10:11 1014.200 - - - - N     39.88
2020-Feb-14 03:10:54 1014.000 - - - - N     39.88
2020-Feb-14 04:08:51 1013.700 - - - - N     39.88
2020-Feb-14 05:09:14 1013.800 - - - - N     39.88
2020-Feb-14 06:09:10 1014.200 - - - - N     39.88
2020-Feb-14 07:09:19 1014.000 - - - - N     39.88
2020-Feb-14 08:09:05 1014.500 - - - - N     39.88
2020-Feb-14 09:09:16 1014.600 - - - - N     39.88
2020-Feb-14 10:09:08 1014.700 - - - - N     39.88
2020-Feb-14 11:09:03 1014.700 - - - - N     39.88
2020-Feb-14 12:09:14 1014.300 - - - - N     39.88
2020-Feb-14 13:08:50 1013.800 - - - - N     39.88
2020-Feb-14 14:08:46 1013.000 - - - - N     39.88
2020-Feb-14 15:09:09 1012.500 - - - - N     39.88
2020-Feb-14 16:09:02 1012.100 - - - - N     39.88
2020-Feb-14 17:08:57 1012.000 - - - - N     39.88
2020-Feb-14 18:09:14 1012.300 - - - - N     39.88
2020-Feb-14 19:09:29 1013.200 - - - - N     39.88
2020-Feb-14 20:09:25 1013.900 - - - - N     39.88
2020-Feb-14 21:09:10 1014.400 - - - - N     39.88
2020-Feb-14 22:08:56 1014.800 - - - - N     39.88
2020-Feb-14 23:09:06 1014.700 - - - - N     39.88

Temperatura Máxima:    Temperatura Mínima:
Presión Máxima:1014.800 Hpa    Presión Mínima:1012.000 Hpa


Volver